Overview Statistics Trail Chart Weather Telemetry Raw packets
 

This is the latest recevied weather packets stored in our database for station/object KO4ZGL-13. If no packets are shown the sender has not sent any weather packets the latest 10 day(s).

<< 1 2 3 4 >>
Time Temp. Humidity Pressure Rain* Wind** Luminosity Snow
1788657871 23.33° C 95% 1010 hPa 1.27 mm - 0 W/m² -
1788657570 23.89° C 94% 1010.5 hPa 1.27 mm - 0 W/m² -
1788657266 23.89° C 93% 1010 hPa 1.78 mm - 0 W/m² -
1788656961 24.44° C 91% 1009.2 hPa 1.78 mm - 0 W/m² -
1788656656 25° C 88% 1009.9 hPa 0 mm - 0 W/m² -
1788656352 25.56° C 85% 1010.1 hPa 0 mm - 0 W/m² -
1788656052 26.11° C 83% 1010.5 hPa 0 mm - 0 W/m² -
1788655750 26.67° C 80% 1010.8 hPa 0 mm - 0 W/m² -
1788655445 26.67° C 78% 1010.7 hPa 0 mm - 0 W/m² -
1788655140 26.67° C 77% 1011.4 hPa 0 mm - 0 W/m² -
1788654835 26.67° C 77% 1011.3 hPa 0 mm - 0 W/m² -
1788654555 26.67° C 75% 1011.5 hPa 0 mm - 0 W/m² -
1788654230 27.22° C 75% 1011.5 hPa 0 mm - 0 W/m² -
1788653926 27.22° C 75% 1011.5 hPa 0 mm - 0 W/m² -
1788653621 27.22° C 77% 1011.5 hPa 0 mm - 0 W/m² -
1788653316 27.22° C 77% 1011.6 hPa 0 mm - 0 W/m² -
1788653011 27.22° C 78% 1011.7 hPa 0 mm - 0 W/m² -
1788652706 27.78° C 79% 1011.8 hPa 0 mm - 0 W/m² -
1788652406 27.78° C 78% 1011.6 hPa 0 mm - 0 W/m² -
1788652101 27.78° C 77% 1011.7 hPa 0 mm - 0 W/m² -
1788651796 28.33° C 78% 1012.2 hPa 0 mm - 0 W/m² -
1788651491 28.33° C 79% 1012.1 hPa 0 mm - 0 W/m² -
1788651186 28.89° C 79% 1011.6 hPa 0 mm - 0 W/m² -
1788650885 28.89° C 80% 1011.8 hPa 0 mm - 1 W/m² -
1788650582 28.89° C 82% 1011.9 hPa 0 mm - 1 W/m² -

* Rain latest hour (hover to see other rain measurements)
** Current wind speed in m/s (hover to see current wind gust speed)